THOR ABLESTAR DEB, 653

Orbit data source: Space-Track

THOR ABLESTAR DEB, 653 is space debris in LEO originally from a launch on Thu, 29 Jun 1961 UTC launched from the Air Force Eastern Test Range (AFETR). Debris objects in space refer to the collection of defunct objects orbiting the Earth. Examples of debris include non-operational satellites, rocket bodies, and fragments generated from explosions, collisions, or faulty payload assembly.

Loading next visibility...
Identifier
653, 1961-015HE
Orbit
LEO
Last TLE update
13 hours ago
Origin
Manufacturer
Unknown
Mission
Spacecraft
Bus & Motor
Unknown
Mass
Unknown
Launch date (UTC)
1961-06-29 (64 years ago)
Launch vehicle
Unknown
Launch site
Air Force Eastern Test Range (AFETR)
Object type
Payload
Rocket body
Debris
Shape & HBR
Unknown
Radar Cross Section
Small (<0.1 m²)

Expand to show TLE details & history

TLE from 13 hours ago
0 THOR ABLESTAR DEB
1 00653U 61015HE  25133.79405286  .00000744  00000-0  84554-3 0  9996
2 00653  67.4519   5.8272 0163938 296.3157 137.5634 13.69690552163178
Epoch: 2025-05-13T19:03Z
Definitive object data (Epoch: 2025-05-13T19:03:26.167Z)
Latitude
63.31294°
Longitude
-96.55672°
Altitude
1,100.955 km
Speed
7.263 km/s
True Right ascension
04h 04m 21s
True Declination
63° 10' 52"
Sunlit
Object was in daylight at TLE epoch
Visualization TLE readout
Latitude
-43.54561°
Longitude
-176.21614°
Altitude
900.275 km
Speed
7.46 km/s
Apparent Right ascension
01h 42m 38s
Apparent Declination
-52° 15' 56"
Sunlit
Object is in daylight
Visualization observer readout
Local Sidereal Time
16:57:46
Azimuth
127.072° SE
Elevation
-54.76°
Doppler factor
1
Orbital elements
Apogee altitude
1,119.958 km
Perigee altitude
878.079 km
Semi-major axis
7,377.155 km
Eccentricity
0.0163938
Inclination
67.4519°
RAAN
5.8272°
Arg. of periapsis
296.3157°
True anomaly
138.81203°
Mean anomaly
137.5634°
Eccentric anomaly
138.1896°
Mean motion
3.42539 °/min
BSTAR
0.00084554
Orbital period
105.1 mins
Loading maneuver chart data...
Loading SW <> Apogee altitude chart data...

THOR ABLESTAR DEB Visibility forecast

Observer location: undefined°, undefined°

Span
Click to sort rows by Start time (UTC) header in descending order
Start Az.
Max El. time (UTC)
Max El. Az.
Max El.
End time (UTC)
End Az.
10 mins2025-05-14 15:49:53.768Z157.054° SSE2025-05-14 15:54:53.768Z99.874° ESE24.961°2025-05-14 15:59:53.768Z50.579° ENE
11 mins2025-05-14 17:37:53.768Z234.972° WSW2025-05-14 17:41:53.768Z294.069° NW38.324°2025-05-14 17:48:53.768Z20.152° NNE
4 mins2025-05-14 19:30:53.768Z316.319° NNW2025-05-14 19:31:53.768Z325.584° NNW12.689°2025-05-14 19:34:53.768Z351.915° N
11 mins2025-05-15 01:01:53.768Z352.696° N2025-05-15 01:06:53.768Z48.131° ENE29.157°2025-05-15 01:12:53.768Z111.58° ESE
12 mins2025-05-15 02:49:53.768Z318.865° NNW2025-05-15 02:54:53.768Z262.127° W37.953°2025-05-15 03:01:53.768Z175.685° S
|